This demonstration page uses our WeatherBlox Daily Observations layout. Learn more.

40.92945, -100.16068

Hourly Observations for December 18, 2018

Temp ( °F °C ) Dew Point ( °F °C ) Humidity (%) Winds ( mph kmh ) Pressure ( in mb ) Visibility ( mi km ) Precip ( " mm )
12:15 am 00:15 Clear 39 3.7 27 -2.8 63 63 SE 6 9 30.03 1017 10 16.09344 0 0
12:35 am 00:35 Clear 38 3.6 28 -2.5 65 65 SSE 6 9 30.03 1017 10 16.09344 0 0
12:55 am 00:55 Clear 36 2.3 28 -2.5 71 71 NE 5 7 30.06 1018 10 16.09344 0 0
1:15 am 01:15 Clear 39 4 28 -2.5 63 63 ESE 3 6 30.03 1017 10 16.09344 0 0
1:35 am 01:35 Clear 35 1.6 27 -2.8 73 73 Calm 30.06 1018 10 16.09344 0 0
1:55 am 01:55 Clear 35 1.8 28 -2.4 74 74 SSE 9 15 30.03 1017 10 16.09344 0 0
2:15 am 02:15 Clear 37 2.7 28 -2.3 70 70 Calm 30.06 1018 10 16.09344 0 0
2:35 am 02:35 Clear 35 1.4 28 -2.4 76 76 Calm 30.03 1017 10 16.09344 0 0
2:55 am 02:55 Clear 35 1.7 28 -2.3 75 75 Calm 30.03 1017 10 16.09344 0 0
3:15 am 03:15 Clear 34 1 28 -2.5 78 78 SE 5 7 30.03 1017 10 16.09344 0 0
3:35 am 03:35 Clear 33 0.7 27 -2.8 78 78 Calm 30.03 1017 10 16.09344 0 0
3:55 am 03:55 Clear 35 1.4 28 -2.5 76 76 Calm 30.03 1017 10 16.09344 0 0
4:15 am 04:15 Clear 33 0.4 28 -2.1 84 84 Calm 30 1016 10 16.09344 0 0
4:35 am 04:35 Clear 33 0.3 28 -2.3 83 83 Calm 30 1016 10 16.09344 0 0
4:55 am 04:55 Clear 32 0 28 -2 87 87 Calm 30 1016 10 16.09344 0 0
5:15 am 05:15 Clear 32 0 29 -1.8 88 88 SSE 5 7 30 1016 10 16.09344 0 0
5:35 am 05:35 Clear 33 0.6 28 -2 83 83 S 3 6 30 1016 10 16.09344 0 0
5:55 am 05:55 Clear 33 0.4 28 -2 84 84 SSE 5 7 30 1016 10 16.09344 0 0
6:15 am 06:15 Clear 33 0.6 28 -2 83 83 Calm 30 1016 10 16.09344 0 0
6:35 am 06:35 Clear 32 0 28 -2.2 85 85 Calm 30 1016 10 16.09344 0 0
6:55 am 06:55 Clear 32 0 28 -2.1 86 86 Calm 30 1016 10 16.09344 0 0
7:15 am 07:15 Clear 30 -1 27 -2.7 88 88 WNW 6 9 30.03 1017 10 16.09344 0 0
7:35 am 07:35 Clear 30 -1.1 27 -3 87 87 WNW 7 11 30.03 1017 10 16.09344 0 0
7:55 am 07:55 Clear 31 -0.8 27 -2.6 88 88 W 5 7 30.03 1017 10 16.09344 0 0
8:15 am 08:15 Sunny 31 -0.8 27 -2.7 87 87 WNW 6 9 30.03 1017 10 16.09344 0 0
8:35 am 08:35 Sunny 31 -0.5 28 -2.3 88 88 NW 6 9 30.03 1017 10 16.09344 0 0
8:55 am 08:55 Sunny 32 -0.2 28 -2 88 88 WNW 6 9 30.03 1017 10 16.09344 0 0
9:15 am 09:15 Sunny 32 0 28 -2 87 87 Calm 30 1016 10 16.09344 0 0
9:35 am 09:35 Sunny 33 0.8 30 -1.2 87 87 NW 7 11 30 1016 10 16.09344 0 0
9:55 am 09:55 Sunny 36 2.1 31 -0.5 83 83 WNW 7 11 30 1016 10 16.09344 0 0
10:15 am 10:15 Sunny 37 2.5 32 -0.2 83 83 WNW 8 13 30 1016 10 16.09344 0 0
10:35 am 10:35 Sunny 37 3 32 -0.1 80 80 WNW 6 9 29.97 1015 10 16.09344 0 0
10:55 am 10:55 Sunny 38 3.3 32 0 79 79 WNW 7 11 29.97 1015 10 16.09344 0 0
11:15 am 11:15 Sunny 39 3.8 32 0.2 78 78 WNW 6 9 29.97 1015 10 16.09344 0 0
11:35 am 11:35 Sunny 41 5 33 0.6 73 73 WNW 7 11 29.97 1015 10 16.09344 0 0
11:55 am 11:55 Sunny 44 6.5 33 0.8 67 67 WNW 6 9 29.91 1013 10 16.09344 0 0
12:15 pm 12:15 Sunny 46 7.5 34 0.9 63 63 WNW 9 15 29.91 1013 10 16.09344 0 0
12:35 pm 12:35 Sunny 47 8.3 34 1.3 62 62 WNW 9 15 29.91 1013 10 16.09344 0 0
12:55 pm 12:55 Sunny 49 9.2 35 1.4 58 58 WNW 9 15 29.85 1011 10 16.09344 0 0
1:15 pm 13:15 Sunny 49 9.7 34 1.1 55 55 NW 13 20 29.85 1011 10 16.09344 0 0
1:35 pm 13:35 Sunny 51 10.6 35 1.5 54 54 NW 10 17 29.85 1011 10 16.09344 0 0
1:55 pm 13:55 Sunny 51 10.7 35 1.5 53 53 WNW 10 17 29.83 1010 10 16.09344 0 0
2:15 pm 14:15 Sunny 51 10.6 35 1.4 53 53 NW 8 13 29.83 1010 10 16.09344 0 0
2:35 pm 14:35 Sunny 49 9.2 32 0 53 53 NW 9 15 29.83 1010 10 16.09344 0 0
2:55 pm 14:55 Sunny 48 8.7 32 0.1 55 55 WNW 7 11 29.83 1010 10 16.09344 0 0
3:15 pm 15:15 Sunny 48 8.7 33 0.4 56 56 WNW 3 6 29.83 1010 10 16.09344 0 0
3:35 pm 15:35 Sunny 49 9.4 32 0 52 52 Calm 29.83 1010 10 16.09344 0 0
3:55 pm 15:55 Sunny 50 10.2 32 0.1 50 50 Calm 29.83 1010 10 16.09344 0 0
4:15 pm 16:15 Sunny 49 9.6 33 0.5 53 53 Calm 29.83 1010 10 16.09344 0 0
4:35 pm 16:35 Sunny 49 9.7 34 1 55 55 Calm 29.83 1010 10 16.09344 0 0
4:55 pm 16:55 Sunny 47 8.5 34 0.9 59 59 SSW 3 6 29.83 1010 10 16.09344 0 0
5:15 pm 17:15 Clear 44 6.7 33 0.5 65 65 SSW 3 6 29.85 1011 10 16.09344 0 0
5:35 pm 17:35 Clear 43 6.3 32 0.2 65 65 Calm 29.85 1011 10 16.09344 0 0
5:55 pm 17:55 Clear 40 4.7 32 0 72 72 SSW 3 6 29.88 1012 10 16.09344 0 0
6:15 pm 18:15 Clear 38 3.6 32 -0.2 76 76 Calm 29.85 1011 10 16.09344 0 0
6:35 pm 18:35 Clear 37 2.5 31 -0.7 80 80 SW 7 11 29.88 1012 10 16.09344 0 0
6:55 pm 18:55 Clear 35 1.8 31 -0.7 84 84 SW 6 9 29.91 1013 10 16.09344 0 0
7:15 pm 19:15 Clear 35 1.5 30 -1.2 82 82 SW 5 7 29.88 1012 10 16.09344 0 0
7:35 pm 19:35 Clear 33 0.6 29 -1.6 85 85 Calm 29.88 1012 10 16.09344 0 0
7:55 pm 19:55 Clear 33 0.7 29 -1.5 85 85 S 3 6 29.88 1012 10 16.09344 0 0
8:15 pm 20:15 Clear 33 0.7 30 -1.2 87 87 Calm 29.88 1012 10 16.09344 0 0
8:35 pm 20:35 Clear 32 -0.2 28 -2.2 87 87 Calm 29.88 1012 10 16.09344 0 0
8:55 pm 20:55 Clear 31 -0.6 28 -2.5 87 87 Calm 29.88 1012 10 16.09344 0 0
9:15 pm 21:15 Clear 31 -0.8 28 -2.5 88 88 Calm 29.88 1012 10 16.09344 0 0
9:35 pm 21:35 Clear 32 -0.2 29 -1.9 88 88 Calm 29.88 1012 10 16.09344 0 0
9:55 pm 21:55 Clear 30 -1 27 -2.6 89 89 Calm 29.88 1012 10 16.09344 0 0
10:15 pm 22:15 Clear 32 -0.2 28 -2 88 88 WNW 3 6 29.85 1011 10 16.09344 0 0
10:35 pm 22:35 Clear 29 -1.7 26 -3.1 90 90 W 3 6 29.88 1012 10 16.09344 0 0
10:55 pm 22:55 Clear 29 -1.5 26 -3.1 89 89 WNW 3 6 29.85 1011 10 16.09344 0 0
11:15 pm 23:15 Clear 29 -1.9 26 -3.1 92 92 WNW 5 7 29.88 1012 10 16.09344 0 0
11:35 pm 23:35 Clear 29 -1.7 26 -3.1 90 90 WNW 5 7 29.88 1012 10 16.09344 0 0
11:55 pm 23:55 Clear 29 -1.6 27 -2.9 91 91 Calm 29.88 1012 10 16.09344 0 0

Powered by AerisWeather